Location: Humble ISD Astronomical Observatory
(29.9680°N, 95.2620°W)
Time: 21:47:45
(UTC-05:00)

Tiangong 2 - Pass Details

Date: 29 March 2019
Orbit: 378 x 389 km, 42.8° (Epoch: 19 April)

Event Time Altitude Azimuth Distance (km) Brightness Sun altitude
Rises 21:50:03 0° 268° (W) 2,237 5.9 -28.5°
Reaches altitude 10° 21:52:27 10° 286° (WNW) 1,385 4.8 -29.0°
Enters shadow 21:53:03 13° 295° (WNW) 1,208 4.4 -29.1°
